Simultaneous Nadir Overpasses (SNOs) Predictions

Prediction of SNOs between GOES-14 and AQUA Satellite Orbit:

Table of predicted SNOs for the next 14.0 days since TLE Epoch: 11/24/2018
Index Date Time (GOES-14) GOES-14 Lat,Lon AQUA Lat,Lon Distance(km) Time Diff (sec)
1 11/25/2018 20:26:33 -0.06,-104.02 0.29,-102.47 176.77 80
2 11/26/2018 08:47:50 0.04,-104.19 0.75,-107.64 391.94 80
3 11/28/2018 08:35:38 0.04,-104.19 0.17,-104.67 56.21 80
4 11/30/2018 08:20:47 0.04,-104.18 -0.47,-101.72 279.87 80
5 11/30/2018 20:42:10 -0.02,-104.00 -0.66,-106.90 330.21 80
6 12/02/2018 20:32:39 -0.02,-104.01 -0.01,-103.95 6.65 80
7 12/04/2018 20:20:27 -0.03,-104.02 0.59,-100.99 343.95 80
8 12/05/2018 08:41:45 0.01,-104.21 0.40,-106.17 221.76 80
9 12/07/2018 08:26:53 0.02,-104.22 -0.20,-103.20 115.06 80
10 12/07/2018 20:48:15 -0.00,-104.01 -0.93,-108.39 497.81 80




NCC Satellite Simultaneous Nadir Overpasses (SNOs) Prediction Service
